RH
57 57 55 56 52 52 47 49 44 46 53 53 45 38 29 47 54 66 51 63 52 39 38 31 50 69 67 58 43 43 47 44 38 37 33 31 29 28 27 26 24 24 26 29 28
56 57 51 51 46 45 49 53 51 45 47 49 52 45 38 32 54 49 45 63 64 48 46 40 45 64 70 66 56 44 41 36 34 34 32 30 29 29 28 28 26 24 26 29 29
55 51 45 43 53 53 53 53 53 51 46 47 53 51 48 37 46 57 56 58 71 47 48 47 52 59 70 70 61 53 44 39 38 32 30 31 31 30 30 31 27 26 26 32 30
47 49 51 51 57 64 69 70 67 70 61 56 63 64 55 47 44 53 57 54 66 57 53 48 52 66 63 65 61 59 52 47 45 38 35 34 34 32 32 32 29 26 25 26 35
51 55 60 66 69 77 76 74 66 63 67 66 63 68 72 60 35 65 56 61 66 67 54 50 51 63 58 60 64 57 59 53 50 47 42 40 38 36 34 33 29 26 24 26 29
57 62 66 71 79 84 79 67 72 72 63 65 69 76 80 68 41 74 86 78 69 62 61 56 52 57 61 59 61 55 55 52 53 50 45 42 40 38 33 33 30 26 23 24 26
60 67 76 78 78 77 79 74 73 66 64 70 77 87 87 64 51 67 83 83 75 63 61 61 60 59 60 58 58 58 54 48 46 45 43 41 38 35 33 31 29 25 23 21 20
68 76 84 93 64 78 73 69 66 74 84 68 74 88 79 75 59 62 91 82 77 61 62 66 66 61 59 60 52 54 56 52 34 37 41 39 29 32 29 28 27 25 22 21 17
72 73 80 93 61 57 63 62 68 72 76 76 85 80 78 75 74 72 90 83 78 63 70 82 79 62 58 59 56 52 45 48 40 35 33 33 28 28 26 26 25 25 23 21 17
60 65 70 87 76 57 66 70 75 74 75 84 89 85 71 75 83 79 90 78 78 70 87 97 96 84 69 59 48 45 46 48 36 37 37 33 29 29 25 24 23 22 21 20 19
62 61 64 86 87 58 68 77 76 80 83 83 79 85 85 78 86 71 73 70 84 71 85 93 98 81 64 52 51 46 47 40 34 36 33 32 35 29 26 23 22 20 19 19 19
70 64 56 86 88 61 74 76 78 89 84 76 82 82 92 97 96 98 97 98 75 78 91 95 94 84 74 63 55 47 43 40 43 41 36 37 35 29 26 25 24 22 21 20 20
69 60 55 72 73 63 71 81 82 82 79 80 76 73 84 98 95 96 96 94 83 90 94 95 90 84 74 64 56 51 45 45 42 40 37 36 32 29 27 25 24 21 20 19 20
55 58 54 65 72 74 72 64 66 69 80 81 92 97 97 96 94 94 97 97 98 98 95 98 92 84 78 64 55 56 57 55 46 45 42 37 32 30 26 27 25 24 23 23 23
41 43 52 58 54 56 56 67 73 74 92 94 96 98 99 85 82 92 86 98 95 96 98 97 94 93 81 69 59 64 62 61 54 49 47 42 38 30 27 29 29 27 27 26 26
44 49 52 59 62 59 59 71 77 79 94 96 97 94 83 91 80 82 94 94 97 93 93 97 98 96 95 93 77 69 63 65 58 56 59 46 40 28 27 29 30 29 29 29 28
41 46 52 60 60 57 54 58 69 76 85 90 97 87 80 87 85 89 90 92 96 97 97 98 95 96 97 98 93 77 73 78 75 74 55 46 45 30 29 30 32 32 31 31 30
39 42 54 57 58 55 53 59 67 80 87 89 92 83 84 83 92 89 91 85 84 92 96 98 94 94 96 92 90 91 83 73 63 56 46 50 39 30 31 31 32 33 34 33 33
42 42 48 50 55 56 63 68 75 75 82 89 93 87 86 79 80 93 93 84 84 87 89 97 97 85 84 83 82 84 87 74 63 57 54 40 37 34 31 33 33 34 36 37 38
49 43 46 48 51 52 57 69 80 84 82 76 75 71 77 78 76 86 82 81 78 80 77 79 93 86 78 76 74 74 70 76 75 63 48 34 30 28 33 34 34 36 38 39 40
43 54 53 49 49 61 67 70 72 77 77 72 69 67 70 73 73 71 76 78 74 74 72 68 71 83 75 71 69 69 67 63 57 47 36 25 25 26 31 33 35 36 38 42 45
40 52 56 54 54 58 65 67 69 72 72 69 67 69 67 67 70 72 72 75 72 72 69 67 66 73 71 64 64 62 60 54 56 57 50 43 29 31 32 35 36 41 44 49 51
38 44 52 59 59 57 59 66 67 65 65 64 66 66 64 63 70 72 72 70 68 69 70 66 67 73 74 69 62 61 59 56 53 54 55 38 32 36 36 38 42 47 52 55 56
40 44 49 57 61 57 56 57 61 60 57 55 57 59 62 65 66 68 66 67 63 66 66 59 58 57 54 60 59 66 60 55 56 57 43 40 38 41 38 45 52 55 58 60 60
40 48 51 58 64 58 58 58 58 59 56 57 59 62 63 66 63 61 66 63 62 63 63 58 66 58 54 54 60 59 58 54 55 50 54 40 38 35 46 55 57 59 64 64 62
53 50 54 56 61 65 60 60 56 58 60 61 64 68 67 67 64 59 57 57 58 59 59 55 66 61 57 52 55 59 55 55 54 52 50 45 45 51 56 61 65 67 69 67 61
58 53 54 57 58 64 65 64 64 64 65 65 64 65 66 70 73 69 64 56 57 55 53 55 58 58 56 54 56 57 52 52 52 50 45 51 55 62 68 71 71 71 68 63 59